Weather History for West Plains, MO

Change the Weather History Date:

Friday, January 13, 2012

  Actual Average Record
Temperature  
Mean Temperature 24 °F 34 °F  
Max Temperature 32 °F 44 °F 71 °F (1995)
Min Temperature 15 °F 23 °F -3 °F (1963)
Degree Days  
Heating Degree Days 41 31  
Month to date heating degree days 317 403  
Since 1 July heating degree days 1917 2148  
Cooling Degree Days 0 0  
Month to date cooling degree days 0 0  
Year to date cooling degree days 0 0  
Moisture  
Dew Point 8 °F    
Average Humidity 52    
Maximum Humidity 67    
Minimum Humidity 36    
Precipitation  
Precipitation 0.00 in 0.06 in 2.16 in (1971)
Month to date precipitation 0.66 0.83  
Year to date precipitation 0.66 0.83  
Sea Level Pressure  
Sea Level Pressure 30.12 in    
Wind  
Wind Speed 8 mph (West)    
Max Wind Speed 22 mph    
Max Gust Speed 26 mph    
Visibility 10 miles    
Events      
T = Trace of Precipitation, MM = Missing Value Source: NWS Daily Summary

Daily Weather History Graph

Daily Weather History Graph

Search for Another Location

Airport:

Trip Planner

Search our weather history database for the weather conditions in past years. The results will help you decide how hot, cold, wet, or windy it might be!

Date:

Astronomy

Jan. 13, 2012 Rise Set
Actual Time 7:20 AM CST 5:12 PM CST
Civil Twilight 6:51 AM CST 5:40 PM CST
Nautical Twilight 6:19 AM CST 6:12 PM CST
Astronomical Twilight 5:48 AM CST 6:43 PM CST
Moon 10:16 PM CST (1/13) 9:43 AM CST (1/13)
Length of Visible Light 10h 48m
Length of Day
9h 52m
Waning Gibbous, 78% of the Moon is Illuminated
Jan 13
Waning Gibbous
Jan 16
Last Quarter
Jan 23
New
Jan 30
First Quarter
Feb 7
Full

Hourly Weather History & Observations

Time (CST) Temp. Windchill Dew Point Humidity Pressure Visibility Wind Dir Wind Speed Gust Speed Precip Events Conditions
12:53 AM 21.9 °F 11.0 °F 9.0 °F 58% 30.00 in 10.0 mi WNW 10.4 mph 20.7 mph N/A   Overcast
1:53 AM 21.9 °F 8.2 °F 10.0 °F 60% 30.01 in 10.0 mi WNW 16.1 mph 21.9 mph N/A   Overcast
2:53 AM 19.9 °F 9.3 °F 9.0 °F 62% 30.02 in 10.0 mi WNW 9.2 mph - N/A   Clear
3:53 AM 19.0 °F 10.0 °F 9.0 °F 65% 30.04 in 10.0 mi West 6.9 mph - N/A   Clear
4:53 AM 18.0 °F 6.9 °F 8.1 °F 65% 30.05 in 10.0 mi West 9.2 mph - N/A   Clear
5:53 AM 17.1 °F 7.6 °F 8.1 °F 68% 30.07 in 10.0 mi West 6.9 mph - N/A   Clear
6:53 AM 16.0 °F 7.4 °F 7.0 °F 68% 30.08 in 10.0 mi West 5.8 mph - N/A   Clear
7:53 AM 16.0 °F 5.3 °F 7.0 °F 68% 30.12 in 10.0 mi West 8.1 mph - N/A   Clear
8:53 AM 19.0 °F 6.1 °F 7.0 °F 59% 30.14 in 10.0 mi West 12.7 mph - N/A   Clear
9:53 AM 21.9 °F 10.4 °F 7.0 °F 53% 30.16 in 10.0 mi West 11.5 mph - N/A   Clear
10:53 AM 24.1 °F 13.7 °F 7.0 °F 48% 30.17 in 10.0 mi West 10.4 mph - N/A   Clear
11:53 AM 27.0 °F 18.0 °F 8.1 °F 45% 30.14 in 10.0 mi WSW 9.2 mph - N/A   Clear
12:53 PM 30.9 °F 21.2 °F 9.0 °F 40% 30.12 in 10.0 mi West 12.7 mph 18.4 mph N/A   Clear
1:53 PM 30.9 °F 22.2 °F 8.1 °F 38% 30.12 in 10.0 mi WSW 10.4 mph - N/A   Clear
2:53 PM 30.9 °F 20.7 °F 7.0 °F 37% 30.13 in 10.0 mi West 13.8 mph 19.6 mph N/A   Clear
3:53 PM 30.9 °F 22.2 °F 6.1 °F 35% 30.14 in 10.0 mi WSW 10.4 mph - N/A   Clear
4:53 PM 30.0 °F 23.2 °F 6.1 °F 36% 30.17 in 10.0 mi West 6.9 mph - N/A   Clear
5:53 PM 27.0 °F 20.5 °F 8.1 °F 45% 30.17 in 10.0 mi West 5.8 mph - N/A   Clear
6:53 PM 25.0 °F 19.3 °F 8.1 °F 49% 30.19 in 10.0 mi West 4.6 mph - N/A   Clear
7:53 PM 23.0 °F - 8.1 °F 53% 30.18 in 10.0 mi Calm Calm - N/A   Clear
8:53 PM 23.0 °F 18.4 °F 8.1 °F 53% 30.19 in 10.0 mi West 3.5 mph - N/A   Clear
9:53 PM 19.9 °F - 9.0 °F 62% 30.18 in 10.0 mi Calm Calm - N/A   Clear
10:53 PM 19.9 °F 14.9 °F 10.0 °F 65% 30.17 in 8.0 mi SW 3.5 mph - N/A   Clear
11:53 PM 24.1 °F 18.2 °F 7.0 °F 48% 30.16 in 10.0 mi SSW 4.6 mph - N/A   Clear